Voltar ao catálogo

STARLINK-36256

AtivoComunicaçõesVLEO
NORAD 67103·PAYLOAD·🇺🇸 United States

Lançado Dec 15, 2025 de Cape Canaveral Space Force Station

Loading…

Próximas Passagens (próximas 24 horas)

TLE

AtualizadoSource: CelesTrak SupGP

Época: Sep 15, 2026, 03:18 UTC

1 67103C 25299B   26258.13798611 -.00008346  00000+0 -30235-3 0  2589
2 67103  43.0026 179.1230 0001449 273.2849 301.5460 15.27576736    19

Acompanhe STARLINK-36256 em tempo real com AllMySat

Download on the App Store